Location: Egartenhof
(48.9500°N, 9.0833°E)
Time: 11:32:49
(UTC+00:00)

Daily predictions for brighter satellites

Satellite Brightness Start Highest point End
(mag) Time Altitude Azimuth Time Altitude Azimuth Time Altitude Azimuth
NOSS 2-1 (D) 3.5 18:06:20 10° NW 18:10:01 78° NE 18:15:02 10° SE
BREEZE-M DEB (TANK) 3.1 18:07:51 10° W 18:10:17 85° N 18:15:04 10° E
Cosmos 1725 Rocket 4.3 18:04:34 10° SSW 18:10:43 76° W 18:16:56 10° N
Meteor 1-18 Rocket 4.4 18:04:55 10° N 18:10:54 85° E 18:16:44 10° SSE
SJ-6B 2.9 18:08:08 10° SSE 18:11:37 47° ENE 18:15:06 10° N
SeaSat 1 3.0 18:08:55 10° NNE 18:13:49 66° NW 18:18:40 10° SW
Cosmos 2333 Rocket 3.4 18:08:16 10° SW 18:13:50 49° NW 18:19:26 10° NNE
Iridium 4 Rocket 3.0 18:10:00 10° N 18:14:07 59° E 18:18:14 10° SSE
Meteor 1-4 Rocket 2.6 18:12:02 10° N 18:14:28 31° ENE 18:16:54 10° SE
CARTOSAT-1 4.5 18:11:05 10° SE 18:14:45 29° ENE 18:18:26 10° N
SL-16 R/B 4.4 18:10:06 10° WSW 18:14:54 27° NW 18:19:44 10° NNE
Cosmos 1151 Rocket 3.6 18:10:43 10° NNW 18:14:56 63° W 18:19:07 10° S
Cosmos 1340 2.4 18:12:19 10° SSW 18:15:34 79° WNW 18:18:51 10° N
ATLAS CENTAUR R/B 2.9 18:14:12 10° SE 18:15:35 12° ESE 18:17:00 10° E
Cosmos 2369 Rocket 4.2 18:15:42 10° N 18:18:42 14° NNE 18:21:41 10° ENE
ARGOS Delta rocket 4.1 18:16:41 10° SSE 18:21:33 51° ENE 18:26:10 10° N
Cosmos 1733 4.4 18:22:26 10° SE 18:24:54 19° E 18:27:22 10° NE
Cosmos 841 Rocket 4.4 18:20:56 10° SW 18:26:01 54° WNW 18:31:05 10° NNE
NOSS 0 Rocket 4.3 18:21:20 10° S 18:27:10 43° ESE 18:33:02 10° NE
Cosmos 1943 Rocket 2.6 18:22:01 10° NNW 18:27:17 43° NE 18:32:33 10° SE
USA 276 1.8 18:25:14 10° WNW 18:28:08 77° SSW 18:30:24 14° ESE
ACS3 Solar Sail 2.6 18:25:15 10° SE 18:30:54 34° ENE 18:36:33 10° N
Cosmos 1400 Rocket 2.8 18:27:23 10° NNW 18:31:13 80° W 18:34:58 10° S
Cosmos 2322 3.7 18:26:43 10° SSW 18:32:22 86° ESE 18:38:04 10° NNE
Cosmos 2233 Rocket 4.3 18:27:22 10° SSW 18:33:30 75° W 18:39:43 10° N
Cosmos 1066 Rocket 4.4 18:27:50 10° NNW 18:33:45 84° W 18:39:33 10° S
BlueWalker 3 3.0 18:30:40 10° WNW 18:34:10 39° SW 18:37:40 10° SSE
Cosmos 1726 2.4 18:33:24 10° SSW 18:36:08 50° WNW 18:38:52 10° N
Resurs 1-3 3.8 18:32:13 10° S 18:36:32 75° WSW 18:40:54 10° NNW
Terra 3.9 18:35:47 10° ENE 18:37:10 11° NE 18:38:33 10° NE
Cosmos 1315 Rocket 3.7 18:43:27 10° N 18:47:00 30° ENE 18:49:14 18° ESE
Meteor PRIRODA 3.9 18:46:03 10° S 18:49:19 58° W 18:52:34 10° NNW
Cosmos 1464 Rocket 4.2 18:43:26 10° SSE 18:49:30 51° E 18:55:38 10° NNE
Cosmos 1125 Rocket 3.6 18:45:54 10° NNW 18:51:03 57° ENE 18:55:24 14° SE
ATLAS 2AS CENTAUR R/B 4.5 18:45:01 10° WNW 18:51:06 29° NNW 18:57:02 10° NE
Cosmos 1842 3.0 18:48:33 10° N 18:52:11 85° W 18:55:48 10° S
SL-16 R/B 3.9 18:53:32 14° E 18:53:32 14° E 18:55:19 10° ENE
Cosmos 1536 2.8 18:50:33 10° S 18:54:14 50° E 18:57:58 10° NNE
USA 59 Rocket 0.9 18:50:27 10° NW 18:54:14 50° SW 18:59:25 10° SSE
Okean 3 Rocket 3.6 18:50:19 10° S 18:54:42 57° E 18:59:04 10° NNE
Cosmos 1707 2.4 18:52:27 10° N 18:56:01 87° E 18:59:33 10° S
COSMOS 2428 2.9 18:50:29 10° SSW 18:56:12 79° WNW 19:01:59 10° NNE
Cosmos 1515 Rocket 3.5 18:51:57 10° N 18:56:17 65° ENE 19:00:35 10° SSE
Okean O Rocket 1.9 18:57:42 17° SE 19:00:50 47° ENE 19:05:06 10° N
Feng Yun 1-1 Rocket 4.3 18:56:04 10° SSE 19:01:49 75° ENE 19:07:44 10° NNW
SL-14 R/B 4.3 19:01:32 10° NNE 19:04:45 25° ENE 19:05:27 24° E
Cosmos 2278 Rocket 2.4 19:01:23 10° NNW 19:07:03 73° WSW 19:12:39 10° SSE
USA 306 2.9 19:05:34 10° W 19:08:43 56° NNW 19:11:32 16° ENE
Meteor 1-13 Rocket 4.2 19:03:40 10° N 19:09:34 72° ENE 19:14:59 12° SSE
CZ-4 R/B 2.0 19:06:07 10° S 19:09:51 52° W 19:13:40 10° NNW
Meteor 2-9 Rocket 4.3 19:05:34 10° SSE 19:10:40 49° E 19:15:55 10° NNE
PSLV R/B 4.2 19:09:57 30° ESE 19:10:54 36° ENE 19:14:10 10° N
Cosmos 2034 Rocket 4.1 19:05:49 10° SSE 19:11:45 50° E 19:17:41 10° NNE
CZ-4B R/B 3.2 19:07:45 10° SSE 19:13:13 87° WSW 19:18:38 10° NNW
Cosmos 1500 Rocket 3.9 19:10:44 18° SSE 19:13:31 40° E 19:17:36 10° NNE
Cosmos 1072 Rocket 4.5 19:08:54 10° S 19:15:18 82° E 19:21:43 10° N
Resurs 01 Rocket 1.8 19:10:55 10° S 19:15:20 74° WSW 19:19:48 10° NNW
Helios 1A 3.7 19:12:20 10° N 19:16:19 54° WNW 19:20:16 10° SSW
NOSS 3-3 (C) 4.1 19:11:24 10° S 19:16:20 39° ESE 19:22:01 10° NE
USA 290 3.9 19:14:18 10° NW 19:17:18 33° WSW 19:20:16 10° S
Cosmos 2228 Rocket 4.4 19:13:47 10° NNE 19:17:25 22° ENE 19:17:55 22° ENE
Meteor 2-10 4.1 19:11:59 10° S 19:17:32 70° E 19:23:14 10° NNE
GEOS 3 Rocket 4.2 19:13:39 13° SSE 19:18:09 55° SW 19:23:16 10° NW
Meteor 1-23 Rocket 4.4 19:12:56 10° N 19:18:27 52° ENE 19:21:41 24° SE
Cosmos 1743 Rocket 4.1 19:19:19 32° ESE 19:20:15 35° E 19:24:13 10° NNE
USA 186 2.7 19:17:45 11° S 19:20:42 48° W 19:23:52 10° NNW
MOS 1-B 4.3 19:17:39 12° SSE 19:23:05 89° ENE 19:28:55 10° NNW
SPOT 5 3.1 19:22:14 31° ESE 19:23:51 44° ENE 19:28:06 10° N
Okean-O 2.9 19:23:04 33° ESE 19:24:37 48° ENE 19:28:52 10° N
USA 267 4.0 19:21:02 13° ENE 19:26:27 46° N 19:32:37 10° WNW
Cosmos 2208 Rocket 4.1 19:21:34 10° S 19:26:41 55° ESE 19:31:54 10° NNE
Cosmos 1408 Rocket 3.4 19:24:05 10° S 19:28:26 75° E 19:32:52 10° NNE
CZ-4B R/B 4.5 19:26:29 10° SSW 19:30:01 33° W 19:33:43 10° NNW
NOSS 3-3 (A) 3.8 19:25:15 10° SSW 19:30:25 51° ESE 19:36:27 10° NE
ISS -3.9 19:27:06 10° WSW 19:30:26 67° SSE 19:30:43 63° ESE
MOS 1 4.3 19:31:48 27° SE 19:34:55 67° ENE 19:40:35 10° N
Cosmos 2237 Rocket 2.1 19:29:33 10° SSW 19:35:11 89° ESE 19:40:51 10° NNE
CSL-04 Rocket 4.0 19:31:46 10° S 19:37:04 63° WSW 19:42:21 10° NNW
Aureole 3 Rocket 3.7 19:30:47 10° S 19:37:34 67° E 19:42:24 10° NNE
Cosmos 1607 4.4 19:32:25 10° S 19:38:14 37° ESE 19:44:04 10° NE
Cosmos 2297 4.2 19:40:09 10° NNW 19:45:33 44° NE 19:47:04 36° E
IKONOS-2 4.5 19:42:02 10° NNE 19:46:12 80° WNW 19:50:20 10° SSW
Meteor 1-11 Rocket 3.8 19:41:00 10° SSW 19:46:37 76° WNW 19:52:11 10° N
MOS 1 Rocket 3.6 19:45:39 42° SE 19:47:08 59° ENE 19:52:20 10° N
Spot 2 Rocket 4.0 19:50:59 37° E 19:51:29 38° ENE 19:56:07 10° N
Cosmos 158 Rocket 3.8 19:47:10 10° SSW 19:52:02 80° WNW 19:56:56 10° NNE
ATLAS CENTAUR R/B 1.1 19:48:47 10° SW 19:52:20 75° NW 19:54:53 19° NE
NOSS 3-4 (A) 4.0 19:47:34 10° NW 19:54:07 57° NE 19:57:11 35° ESE
NOSS 3-4 (C) 4.0 19:47:42 10° NW 19:54:14 57° NE 19:57:17 35° ESE
Cosmos 1805 Rocket 3.4 19:52:47 35° S 19:54:34 90° WSW 19:58:57 10° N
SL-24 R/B 4.3 20:01:55 46° S 20:03:23 89° E 20:08:14 10° N
Cosmos 2369 Rocket 2.5 19:58:38 10° NNW 20:04:12 49° NE 20:05:11 44° E
Cosmos 1980 4.4 19:59:18 10° SW 20:04:52 55° WNW 20:10:29 10° NNE
Cosmos 1862 Rocket 4.0 20:02:48 10° N 20:06:32 46° NE 20:06:32 46° NE
Meteor 1-21 4.2 20:02:50 10° NNW 20:08:38 87° E 20:10:23 48° SSE
Sich 1 3.5 20:07:33 26° SSW 20:09:48 59° WNW 20:14:05 10° N
Cosmos 1943 Rocket 3.4 20:05:58 10° NW 20:10:55 35° WSW 20:14:05 19° SSW
Cosmos 1707 Rocket 3.7 20:07:07 10° N 20:11:05 59° NE 20:11:05 59° NE
DELTA 2 DEB (DPAF) 3.9 20:07:40 10° NNE 20:11:47 86° NNW 20:11:47 86° NNW
Terra 1.7 20:13:53 68° ENE 20:13:53 68° ENE 20:18:34 10° N
ERS-1 Rocket 2.8 20:14:03 69° SE 20:14:38 81° ENE 20:19:41 10° NNW
ACS3 Solar Sail 2.6 20:09:36 16° S 20:14:42 52° W 20:20:58 10° NNW
Cosmos 2298 Rocket 4.4 20:09:38 10° NNW 20:14:50 58° WSW 20:16:27 41° SSW
Cosmos 2150 Rocket 4.4 20:11:29 10° NNW 20:16:31 55° WSW 20:17:57 41° SSW
Cosmos 1975 3.4 20:18:58 50° N 20:18:58 50° N 20:21:57 10° N
Cosmos 1805 4.4 20:21:37 36° W 20:22:09 38° WNW 20:25:37 10° N
Cosmos 2026 Rocket 4.2 20:16:54 10° NNW 20:23:04 65° W 20:25:51 33° SSW
Cosmos 1092 Rocket 4.3 20:17:18 10° NNW 20:23:35 67° W 20:26:28 33° SSW
Ariane Rocket 3.1 20:24:21 60° ENE 20:24:21 60° ENE 20:29:10 10° N
Cosmos 2266 Rocket 4.4 20:19:03 10° N 20:25:00 43° ENE 20:25:07 43° ENE
IRS-1A Rocket 4.4 20:26:28 52° S 20:27:53 75° WSW 20:33:36 10° NNW
Okean 3 4.2 20:29:43 10° N 20:32:44 47° N 20:32:44 47° N
SL-16 R/B 2.0 20:35:16 79° S 20:35:35 84° ESE 20:41:17 10° NNE
Okean O Rocket 3.8 20:35:02 15° SW 20:37:19 21° W 20:40:45 10° NW
Cosmos 1634 Rocket 4.1 20:36:32 34° SSW 20:39:24 73° W 20:45:46 10° N
Cosmos 1656 Rocket 3.6 20:35:23 10° NNW 20:41:02 73° WSW 20:41:19 72° SW
USA 306 4.5 20:38:28 10° WNW 20:40:35 28° NW 20:40:35 28° NW
ATLAS 2AS CENTAUR R/B 4.5 20:38:39 10° NW 20:44:16 25° N 20:49:08 12° ENE
IRS-1C Rocket 4.4 20:45:02 55° SW 20:45:33 57° WSW 20:50:46 10° NNW
Cosmos 773 Rocket 4.5 20:45:39 32° SW 20:47:56 59° WNW 20:53:11 10° NNE
Okean 1-7 4.3 20:46:04 10° N 20:48:39 35° N 20:48:39 35° N
Cosmos 2263 4.2 20:46:30 10° NNW 20:51:55 75° NNE 20:51:55 75° NNE
Cosmos 2228 Rocket 4.1 20:51:25 10° NNW 20:55:20 44° WNW 20:55:20 44° WNW
SPOT 3 Rocket 3.8 21:00:55 64° NW 21:00:55 64° NW 21:05:26 10° NNW
Cosmos 2142 Rocket 4.4 21:02:36 83° W 21:02:39 83° W 21:08:50 10° N
USA 267 3.2 21:08:22 67° ENE 21:09:00 71° NNE 21:15:31 10° NW
Cosmos 1655 Rocket 4.3 21:05:02 10° N 21:10:37 57° NE 21:10:37 57° NE
Cosmos 1607 4.5 21:18:56 10° WSW 21:25:17 58° NW 21:31:39 10° NE
ATLAS CENTAUR R/B 4.1 21:28:04 10° WNW 21:35:08 - NNE 21:29:51 15° NW
NOSS 3-4 (A) 4.5 21:38:31 10° NW 21:44:37 45° WSW 21:44:37 45° WSW
NOSS 3-4 (C) 4.5 21:38:37 10° NW 21:44:43 45° WSW 21:44:43 45° WSW
Cosmos 2369 Rocket 3.6 21:43:00 10° NW 21:46:58 30° W 21:46:58 30° W
Terra 4.2 21:52:34 16° W 21:52:34 16° W 21:54:55 10° NW
Cosmos 1980 Rocket 4.4 22:06:26 10° N 22:09:50 16° NE 22:10:31 16° NE
SL-16 R/B 4.3 22:17:00 14° W 22:20:24 23° NW 22:24:53 10° N
ATLAS 2AS CENTAUR R/B 3.5 22:30:20 10° NW 22:36:31 45° NNE 22:36:31 45° NNE
Cosmos 1697 Rocket 4.3 22:49:14 10° NNW 22:52:29 31° N 22:52:29 31° N
Cosmos 2344 4.1 23:20:22 10° NW 23:27:14 62° W 23:27:14 62° W
